Hoquiam, WA
on Sunday, February 10, 2013

Sunday
Previous Day Next Day
Daily Summary
 ActualAverageRecord
Temperature
Mean Temperature °F 43°F  
Max Temperature 46°F 49°F 66°F (1963)
Min Temperature 36°F 38°F 19°F (1987)
Degree Days
Heating Degree Days 24 22  
Month to date heating degree days 220  
Cooling Degree Days 0 0  
Month to date cooling degree days 0  
Year to date cooling degree days 0  
Moisture
Dew Point 39°F   
Average Humidity 90    
Maximum Humidity 100    
Minimum Humidity 76    
Precipitation
Precipitation 0.00 in 0.27 in 2.79 in (1990)
Month to date precipitation 2.81  
Year to date precipitation 13.14  
Wind
Wind Speed 2 mph   
Max Wind Speed 7 mph   
Max Gust Speed mph   
Visibility 10 miles   
Events     

Key: T is trace of precipitation, MM is missing value
Source: NWS Daily Summary
Time(PST)TemperatureDew PointHumidity Pressure Visibility Wind DirectionWind SpeedGust SpeedPrecipitationEvents Conditions
12:53 AM 44.1°F 41.0°F 89% 30.35 in 10.0 miles NNE 4.6 mph - N/A   Overcast
1:53 AM 43.0°F 39.9°F 89% 30.35 in 10.0 miles NNE 4.6 mph - N/A   Overcast
2:53 AM 42.1°F 39.9°F 92% 30.36 in 10.0 miles NNE 5.8 mph - N/A   Overcast
3:53 AM 39.9°F 37.9°F 93% 30.35 in 10.0 miles Calm Calm - N/A   Clear
4:53 AM 39.0°F 37.9°F 96% 30.36 in 10.0 miles NNE 3.5 mph - N/A   Clear
5:35 AM 37.4°F 37.4°F 100% 30.35 in 10.0 miles Calm Calm - N/A   Mostly Cloudy
5:53 AM 36.0°F 36.0°F 100% 30.36 in 8.0 miles Calm Calm - N/A   Mostly Cloudy
6:09 AM 37.4°F 37.4°F 100% 30.35 in 10.0 miles Calm Calm - N/A   Overcast
6:20 AM 37.4°F 35.6°F 93% 30.36 in 10.0 miles Calm Calm - N/A   Overcast
6:30 AM 37.4°F 37.4°F 100% 30.36 in 10.0 miles Calm Calm - N/A   Overcast
6:37 AM 37.4°F 37.4°F 100% 30.36 in 10.0 miles Calm Calm - N/A   Overcast
6:53 AM 37.9°F 37.0°F 97% 30.37 in 10.0 miles Calm Calm - N/A   Overcast
7:53 AM 37.9°F 37.9°F 100% 30.37 in 10.0 miles Calm Calm - N/A   Overcast
8:53 AM 39.9°F 39.0°F 97% 30.38 in 10.0 miles NE 4.6 mph - N/A   Overcast
9:53 AM 42.1°F 39.9°F 92% 30.39 in 10.0 miles NE 3.5 mph - N/A   Overcast
10:53 AM 44.1°F 41.0°F 89% 30.39 in 10.0 miles Calm Calm - N/A   Overcast
11:19 AM 44.6°F 42.8°F 93% 30.37 in 10.0 miles Calm Calm - N/A   Overcast
11:53 AM 45.0°F 41.0°F 86% 30.38 in 10.0 miles Calm Calm - N/A   Overcast
12:51 PM 46.4°F 39.2°F 76% 30.35 in 10.0 miles Calm Calm - N/A   Overcast
12:53 PM 46.0°F 39.9°F 79% 30.36 in 10.0 miles East 3.5 mph - N/A   Overcast
1:53 PM 46.0°F 39.9°F 79% 30.36 in 10.0 miles Calm Calm - N/A   Overcast
2:53 PM 45.0°F 39.9°F 82% 30.36 in 10.0 miles SSW 3.5 mph - N/A   Overcast
3:53 PM 46.0°F 39.9°F 79% 30.36 in 10.0 miles Calm Calm - N/A   Overcast
4:53 PM 45.0°F 41.0°F 86% 30.35 in 10.0 miles West 3.5 mph - N/A   Overcast
5:53 PM 45.0°F 41.0°F 86% 30.36 in 10.0 miles Calm Calm - N/A   Overcast
6:53 PM 45.0°F 41.0°F 86% 30.36 in 10.0 miles Calm Calm - N/A   Overcast
7:53 PM 44.1°F 41.0°F 89% 30.36 in 10.0 miles Calm Calm - N/A   Overcast
8:53 PM 44.1°F 41.0°F 89% 30.36 in 10.0 miles Calm Calm - N/A   Overcast
9:53 PM 44.1°F 39.9°F 85% 30.36 in 10.0 miles Calm Calm - N/A   Overcast
10:53 PM 43.0°F 39.0°F 86% 30.36 in 10.0 miles WNW 6.9 mph - N/A   Overcast
11:53 PM 44.1°F 37.9°F 79% 30.35 in 10.0 miles North 4.6 mph - N/A   Overcast
Moon Phase
Feb. 10 Feb. 17 Feb. 25 Mar. 04 Mar. 11
Sunrise:07:27 AM (PST) Moon Rise:07:15 AM (PST)2/10
Sunset:05:33 PM (PST) Moon Set:06:37 PM (PST)2/10

Copyright © 2014 The Weather Underground, Inc.